Location: Unspecified
(0.0000°N, 0.0000°E)
Time: 05:48:42
(UTC+00:00)

Vanguard 2 Rocket - Pass Details

Date: 03 October 2023
Orbit: 552 x 3312 km, 32.9° (Epoch: 06 December)

Event Time Altitude Azimuth Distance (km) Brightness Sun altitude
Rises 20:16:36 0° 273° (W) 5,757 11.9 -36.8°
Reaches altitude 10° 20:22:55 10° 255° (WSW) 4,103 10.9 -38.4°
Maximum altitude 20:28:36 16° 221° (SW) 3,019 9.9 -39.8°
Enters shadow 20:32:25 11° 189° (S) 2,925 9.6 -40.7°
Drops below altitude 10° 20:32:56 10° 185° (S) 2,966 - -40.9°
Sets 20:36:24 0° 162° (SSE) 3,531 - -41.7°
